Weather in Vodorazdel

Russia / Stavropol Krai     44°30′55″N   42°21′43″E
temp.,
°C
wind,
m/s
gust,
m/s
humid.,
%
clouds,
%
prec.,
mm/h
press.,
hPa
HPBL,
m
8 march, mon
mon800:00−4wnw12710 0.0 102339
03:00−4wsw22765 0.0 1022114
06:00−5ssw22795 0.0 102232
09:00−2sw12662 0.0 1021323
12:00−1wnw226817 0.0 1019805
15:000w226956 0.0 1017695
18:00−2wsw128147 0.0 101822
21:00−1ssw337474 0.0 101976
9 march, tue
tue900:00−2ssw237777 0.0 101841
03:00−2s117553 0.0 101821
06:00−2ssw117526 0.0 101821
09:000sw226327 0.0 1017272
12:00+3w46560 0.0 1016979
15:00+3w59620 0.0 10161114
18:000wnw6109872 0.6 1018693
21:00−1w489786 1.1 1021591
10 march, wed
wed1000:00−2wnw5896100 2.1 1022572
03:00−4w5894100 2.8 1023672
06:00−5w4894100 0.6 1024563
09:00−3w578499 0.7 1025778
12:00−2wnw4682100 0.1 1024850
15:00−1nw3474100 0.1 1023820
18:00−2nne0177100 0.0 1023264
21:00−3e3580100 0.0 1024373
11 march, thu
thu1100:00−4e6977100 0.0 1023567
03:00−5e71085100 0.1 1022588
06:00−5e81193100 0.9 1022657
09:00−5e81292100 2.0 1022700
12:00−5e91290100 1.1 1021811
15:00−5e91291100 2.1 1021894
18:00−6e91393100 1.1 1022827
21:00−7e91393100 2.1 1023912
12 march, fri
fri1200:00−9e81393100 1.4 1023891
03:00−10e91493100 2.6 1023879
06:00−11e91393100 1.1 1024786
09:00−10e81392100 1.8 1026803
12:00−8e91289100 0.3 1027862
15:00−8e81089100 0.4 1027870
18:00−9e61191100 0.1 1030569
21:00−10ese7149485 0.2 1032423